GW6547 Weather Reports


time (UTC)temp
F
wind
direction
speed
knots
gust
knots
rain 1hr
in
rain 24hr
in
rain mn
in
humidity
%
barometer
mb
20260509095425 53 174 0.0 0.0 0.00 0.00 0.00 98 1012.2
20260509094921 53 180 0.0 0.0 0.00 0.00 0.00 98 1012.3
20260509094418 53 175 0.0 0.0 0.00 0.00 0.00 98 1012.1
20260509093916 53 173 0.0 0.0 0.00 0.00 0.00 98 1012.0
20260509093413 54 175 0.0 0.0 0.00 0.00 0.00 97 1012.3
20260509092911 54 173 0.0 0.0 0.00 0.00 0.00 97 1012.4
20260509092409 54 157 0.0 0.0 0.00 0.00 0.00 97 1012.3
20260509091907 54 169 0.0 0.0 0.00 0.00 0.00 97 1012.1
20260509091403 54 167 0.0 0.0 0.00 0.00 0.00 97 1012.3
20260509090901 54 173 0.0 0.0 0.00 0.00 0.00 96 1011.8
20260509090358 54 171 0.0 0.0 0.00 0.00 0.00 96 1011.7
20260509085855 54 175 0.0 0.0 0.00 0.00 0.00 96 1011.7
20260509085352 54 178 0.0 0.0 0.00 0.00 0.00 96 1012.2
20260509084849 54 174 0.0 0.0 0.00 0.00 0.00 96 1012.2
20260509084346 54 171 0.0 0.0 0.00 0.00 0.00 95 1012.3
20260509083844 54 173 0.0 0.0 0.00 0.00 0.00 95 1012.2
20260509083340 54 176 0.0 0.0 0.00 0.00 0.00 95 1012.4
20260509082837 54 173 0.0 0.0 0.00 0.00 0.00 94 1012.2
20260509082333 54 172 0.0 0.0 0.00 0.00 0.00 94 1012.1
20260509081831 54 175 0.0 0.0 0.00 0.00 0.00 93 1012.2
20260509081328 54 173 0.0 0.0 0.00 0.00 0.00 93 1012.4
20260509080826 54 179 0.0 0.0 0.00 0.00 0.00 93 1012.5
20260509080323 54 170 0.0 0.0 0.00 0.00 0.00 92 1012.6
20260509075822 55 172 0.0 0.0 0.00 0.00 0.00 91 1012.5
20260509075318 55 167 0.0 0.0 0.00 0.00 0.00 90 1012.5
20260509074815 55 173 0.0 0.0 0.00 0.00 0.00 89 1012.3
20260509074313 55 177 0.0 0.0 0.00 0.00 0.00 89 1012.5
20260509073809 56 169 0.0 0.0 0.00 0.00 0.00 87 1012.8
20260509073305 56 177 0.0 0.0 0.00 0.00 0.00 87 1012.8
20260509072802 56 175 0.0 0.0 0.00 0.00 0.00 86 1012.8
20260509072259 56 171 0.0 0.0 0.00 0.00 0.00 85 1013.1
20260509071755 57 170 0.0 0.0 0.00 0.00 0.00 84 1012.9
20260509071253 57 165 0.0 0.0 0.00 0.00 0.00 83 1013.0
20260509070749 57 179 0.0 0.0 0.00 0.00 0.00 83 1013.1
20260509070246 57 176 0.0 0.0 0.00 0.00 0.00 82 1012.9
20260509065743 57 175 0.0 0.0 0.00 0.00 0.00 81 1013.2
20260509065239 57 185 0.0 0.9 0.00 0.00 0.00 81 1013.4
20260509064735 57 176 0.0 0.9 0.00 0.00 0.00 81 1013.5
20260509064233 56 189 0.0 0.0 0.00 0.00 0.00 81 1013.4
20260509063730 56 173 0.0 0.0 0.00 0.00 0.00 80 1013.5
20260509063226 56 176 0.0 0.0 0.00 0.00 0.00 81 1013.3
20260509062724 56 173 0.0 0.0 0.00 0.00 0.00 84 1013.5
20260509062221 55 179 0.0 0.0 0.00 0.00 0.00 82 1013.7
20260509061718 55 172 0.0 0.0 0.00 0.00 0.00 83 1013.6
20260509061215 55 172 0.0 0.0 0.00 0.00 0.00 82 1013.5
20260509060712 55 178 0.0 0.0 0.00 0.00 0.00 82 1013.8
20260509060209 55 175 0.0 0.0 0.00 0.00 0.00 82 1014.0
20260509055704 56 180 0.0 0.0 0.00 0.00 0.00 82 1014.1
20260509055201 56 176 0.0 0.0 0.00 0.00 0.00 81 1014.1
20260509054657 56 172 0.0 0.0 0.00 0.00 0.00 82 1014.2
20260509054155 56 170 0.0 0.0 0.00 0.00 0.00 81 1014.4
20260509053653 56 178 0.0 0.0 0.00 0.00 0.00 80 1014.3
20260509053149 57 177 0.0 0.0 0.00 0.00 0.00 78 1014.3
20260509052647 57 173 0.0 0.0 0.00 0.00 0.00 79 1014.4
20260509052144 57 174 0.0 0.0 0.00 0.00 0.00 78 1014.4
20260509051642 57 176 0.0 0.0 0.00 0.00 0.00 76 1014.6
20260509051140 58 174 0.0 0.0 0.00 0.00 0.00 75 1014.2
20260509050637 58 173 0.0 0.0 0.00 0.00 0.00 75 1014.3
20260509050133 58 173 0.0 0.0 0.00 0.00 0.00 74 1014.4
20260509045631 59 177 0.0 0.0 0.00 0.00 0.00 73 1014.5
20260509045127 59 175 0.0 0.0 0.00 0.00 0.00 72 1014.4
20260509044624 59 176 0.0 0.0 0.00 0.00 0.00 72 1014.6
20260509044122 59 178 0.0 0.0 0.00 0.00 0.00 72 1014.8
20260509043618 60 180 0.0 0.0 0.00 0.00 0.00 71 1014.9
20260509043114 60 174 0.0 0.0 0.00 0.00 0.00 71 1014.9
20260509042610 60 170 0.0 0.0 0.00 0.00 0.00 72 1014.7
20260509042106 60 175 0.0 0.0 0.00 0.00 0.00 72 1014.8
20260509041603 60 174 0.0 0.9 0.00 0.00 0.00 71 1014.7
20260509041101 60 179 0.0 0.0 0.00 0.00 0.00 73 1014.9
20260509040559 60 178 0.0 0.9 0.00 0.00 0.00 73 1014.9
20260509040055 60 156 0.0 0.0 0.00 0.00 0.00 73 1015.0
20260509035552 60 178 0.0 0.0 0.00 0.00 0.00 75 1014.8
20260509035049 59 171 0.0 0.9 0.00 0.00 0.00 75 1014.9
20260509034547 59 173 0.0 0.0 0.00 0.00 0.00 77 1014.7
20260509034044 60 172 0.0 0.0 0.00 0.00 0.00 76 1014.5
20260509033541 60 175 0.0 0.0 0.00 0.00 0.00 75 1014.6
20260509033038 59 173 0.0 0.0 0.00 0.00 0.00 76 1014.6
20260509032536 59 175 0.0 0.0 0.00 0.00 0.00 76 1014.8
20260509032032 59 173 0.0 0.0 0.00 0.00 0.00 76 1014.8
20260509031530 59 175 0.0 0.0 0.00 0.00 0.00 77 1014.8
20260509031027 59 173 0.0 0.0 0.00 0.00 0.00 77 1014.8
20260509030525 59 173 0.0 0.0 0.00 0.00 0.00 77 1014.6
20260509030021 59 174 0.0 0.0 0.00 0.00 0.00 78 1014.8
20260509025517 59 173 0.0 0.0 0.00 0.00 0.00 76 1015.0
20260509025013 59 182 0.0 0.0 0.00 0.00 0.00 77 1015.0
20260509024509 59 173 0.0 0.0 0.00 0.00 0.00 79 1015.0
20260509024006 60 172 0.0 0.0 0.00 0.00 0.00 78 1014.9
20260509023503 59 179 0.0 0.0 0.00 0.00 0.00 76 1014.9
20260509023000 59 177 0.0 0.0 0.00 0.00 0.00 77 1015.1
20260509022457 59 176 0.0 0.0 0.00 0.00 0.00 78 1015.1
20260509021954 59 173 0.0 0.0 0.00 0.00 0.00 77 1015.0
20260509021451 59 172 0.0 0.0 0.00 0.00 0.00 78 1015.1
20260509020948 60 172 0.0 0.0 0.00 0.00 0.00 79 1015.1
20260509020447 59 173 0.0 0.0 0.00 0.00 0.00 78 1014.9
20260509015943 60 170 0.0 0.0 0.00 0.00 0.00 79 1014.9
20260509015442 60 173 0.0 0.0 0.00 0.00 0.00 77 1015.1
20260509014938 60 174 0.0 0.0 0.00 0.00 0.00 75 1014.9
20260509014435 60 172 0.0 0.0 0.00 0.00 0.00 75 1014.9
20260509013931 60 173 0.0 0.0 0.00 0.00 0.00 75 1014.7
20260509013428 60 179 0.0 0.0 0.00 0.00 0.00 74 1014.7
20260509012924 60 170 0.0 0.0 0.00 0.00 0.00 72 1014.6
20260509012421 60 174 0.0 0.0 0.00 0.00 0.00 73 1014.8
20260509011918 60 172 0.0 0.0 0.00 0.00 0.00 73 1014.7
20260509011415 61 176 0.0 0.0 0.00 0.00 0.00 72 1014.7
20260509010913 61 175 0.0 0.0 0.00 0.00 0.00 71 1014.6
20260509010411 61 172 0.0 0.0 0.00 0.00 0.00 71 1014.5
20260509005907 61 176 0.0 0.0 0.00 0.00 0.00 70 1014.6
20260509005405 61 179 0.0 0.0 0.00 0.00 0.00 70 1014.5
20260509004905 62 170 0.0 0.0 0.00 0.00 0.00 69 1014.3
20260509004402 62 173 0.0 0.0 0.00 0.00 0.00 67 1014.5
20260509003900 62 172 0.0 0.0 0.00 0.00 0.00 67 1014.3
20260509003357 63 172 0.0 0.0 0.00 0.00 0.00 66 1014.3
20260509002854 63 172 0.0 0.0 0.00 0.00 0.00 66 1014.3
20260509002352 63 175 0.0 0.0 0.00 0.00 0.00 64 1014.2
20260509001849 64 171 0.0 0.0 0.00 0.00 0.00 63 1014.1
20260509001345 64 173 0.0 0.0 0.00 0.00 0.00 61 1014.2
20260509000842 64 171 0.0 0.0 0.00 0.00 0.00 60 1014.4
20260509000340 65 173 0.0 0.0 0.00 0.00 0.00 60 1014.4
20260508235836 65 170 0.0 0.0 0.00 0.00 0.00 61 1014.4
20260508235333 65 170 0.0 0.0 0.00 0.00 0.00 59 1014.0
20260508234831 65 176 0.0 0.0 0.00 0.00 0.00 58 1014.0
20260508234327 66 170 0.0 0.0 0.00 0.00 0.00 57 1014.0
20260508233825 66 170 0.0 0.0 0.00 0.00 0.00 56 1013.9
20260508233324 66 170 0.0 0.0 0.00 0.00 0.00 55 1013.7
20260508232821 67 176 0.0 0.0 0.00 0.00 0.00 54 1014.0
20260508232317 67 170 0.0 0.0 0.00 0.00 0.00 55 1013.7
20260508231816 67 172 0.0 0.0 0.00 0.00 0.00 55 1013.9
20260508231311 67 170 0.0 0.0 0.00 0.00 0.00 55 1013.9
20260508230808 68 170 0.0 0.0 0.00 0.00 0.00 56 1014.1
20260508230305 68 170 0.0 0.0 0.00 0.00 0.00 52 1014.0
20260508225803 68 174 0.0 0.0 0.00 0.00 0.00 50 1013.9
20260508225259 68 171 0.0 0.9 0.00 0.00 0.00 51 1014.3
20260508224757 69 169 0.0 0.0 0.00 0.00 0.00 50 1014.0
20260508224254 69 174 0.0 0.0 0.00 0.00 0.00 50 1014.1
20260508223752 69 169 0.0 0.0 0.00 0.00 0.00 52 1014.1
20260508223249 69 168 0.0 0.0 0.00 0.00 0.00 49 1014.2
20260508222746 69 173 0.9 0.9 0.00 0.00 0.00 49 1014.2
20260508222243 69 174 0.0 0.0 0.00 0.00 0.00 47 1014.0
20260508221740 70 167 0.0 0.0 0.00 0.00 0.00 49 1013.8
20260508221236 70 195 0.0 0.0 0.00 0.00 0.00 47 1013.9
20260508220732 70 178 1.7 1.7 0.00 0.00 0.00 47 1014.2
20260508220229 71 175 0.0 0.0 0.00 0.00 0.00 44 1014.2
20260508215725 71 166 0.0 0.0 0.00 0.00 0.00 45 1014.0
20260508215221 71 163 0.0 0.9 0.00 0.00 0.00 45 1014.1
20260508214719 71 175 0.9 0.9 0.00 0.00 0.00 46 1013.9
20260508214216 71 174 0.0 0.9 0.00 0.00 0.00 43 1014.1
20260508213712 71 163 0.9 0.9 0.00 0.00 0.00 43 1013.8
20260508213209 72 165 0.9 0.9 0.00 0.00 0.00 48 1013.8
20260508212706 72 182 0.9 1.7 0.00 0.00 0.00 43 1013.8
20260508212202 72 166 0.0 0.9 0.00 0.00 0.00 45 1013.8
20260508211657 72 167 0.0 0.0 0.00 0.00 0.00 45 1013.8
20260508211154 72 155 0.0 0.0 0.00 0.00 0.00 47 1013.9
20260508210651 71 169 0.0 0.0 0.00 0.00 0.00 44 1014.1
20260508210148 71 166 0.0 0.0 0.00 0.00 0.00 43 1014.2
20260508205645 72 171 0.0 0.9 0.00 0.00 0.00 45 1014.2
20260508205141 72 152 1.7 1.7 0.00 0.00 0.00 39 1014.3
20260508204638 72 162 0.0 0.0 0.00 0.00 0.00 43 1014.2
20260508204134 73 126 2.6 2.6 0.00 0.00 0.00 39 1014.3
20260508203630 74 156 0.0 0.0 0.00 0.00 0.00 44 1014.2
20260508203126 74 144 0.0 0.0 0.00 0.00 0.00 41 1014.0
20260508202623 73 156 0.0 0.9 0.00 0.00 0.00 38 1014.2
20260508202120 73 161 0.0 0.0 0.00 0.00 0.00 39 1014.3
20260508201617 73 141 0.0 0.0 0.00 0.00 0.00 43 1014.4
20260508201113 73 173 1.7 1.7 0.00 0.00 0.00 39 1014.6
20260508200610 74 174 0.9 0.9 0.00 0.00 0.00 40 1014.4
20260508200106 73 152 0.9 0.9 0.00 0.00 0.00 41 1014.7
20260508195603 74 190 1.7 1.7 0.00 0.00 0.00 38 1014.6
20260508195059 73 174 0.0 0.0 0.00 0.00 0.00 41 1014.6
20260508194556 72 142 1.7 1.7 0.00 0.00 0.00 38 1014.8
20260508194054 73 174 0.9 1.7 0.00 0.00 0.00 38 1015.1
20260508193549 73 114 0.9 0.9 0.00 0.00 0.00 37 1015.0
20260508193047 72 160 0.0 0.9 0.00 0.00 0.00 39 1015.3
20260508192543 71 163 0.9 0.9 0.00 0.00 0.00 39 1015.3
20260508192040 71 131 2.6 4.3 0.00 0.00 0.00 39 1015.3
20260508191537 73 176 0.0 0.9 0.00 0.00 0.00 39 1015.3
20260508191033 73 115 0.0 0.0 0.00 0.00 0.00 43 1015.2
20260508190531 72 307 0.9 0.9 0.00 0.00 0.00 37 1015.5
20260508190027 70 173 0.0 0.0 0.00 0.00 0.00 40 1015.4
20260508185525 70 203 2.6 2.6 0.00 0.00 0.00 39 1015.6
20260508185022 70 199 0.9 1.7 0.00 0.00 0.00 40 1015.4
20260508184519 70 184 0.0 0.9 0.00 0.00 0.00 38 1015.9
20260508184016 70 133 0.9 0.9 0.00 0.00 0.00 39 1015.7
20260508183513 72 205 2.6 2.6 0.00 0.00 0.00 41 1015.7
20260508183008 70 154 0.9 0.9 0.00 0.00 0.00 40 1015.9
20260508182505 71 150 2.6 2.6 0.00 0.00 0.00 39 1015.9
20260508182001 70 164 0.9 1.7 0.00 0.00 0.00 46 1015.9
20260508181457 71 191 2.6 2.6 0.00 0.00 0.00 40 1016.0
20260508180955 71 162 1.7 1.7 0.00 0.00 0.00 42 1016.3
20260508180451 71 136 0.9 0.9 0.00 0.00 0.00 41 1016.1
20260508175948 70 173 0.9 0.9 0.00 0.00 0.00 41 1016.3
20260508175444 70 216 2.6 2.6 0.00 0.00 0.00 38 1016.3
20260508174942 71 196 0.9 0.9 0.00 0.00 0.00 41 1016.3
20260508174439 71 96 0.9 1.7 0.00 0.00 0.00 44 1016.3
20260508173936 71 147 0.9 1.7 0.00 0.00 0.00 42 1016.5
20260508173433 70 153 0.0 0.0 0.00 0.00 0.00 43 1016.6
20260508172929 69 160 0.9 0.9 0.00 0.00 0.00 43 1016.5
20260508172426 69 136 0.0 0.0 0.00 0.00 0.00 42 1016.5
20260508171923 68 175 0.0 0.0 0.00 0.00 0.00 45 1016.6
20260508171419 69 189 0.0 0.9 0.00 0.00 0.00 45 1016.7
20260508170916 67 142 0.9 0.9 0.00 0.00 0.00 50 1016.8
20260508170413 69 171 0.9 1.7 0.00 0.00 0.00 43 1017.0
20260508165910 69 174 0.9 1.7 0.00 0.00 0.00 43 1017.3
20260508165408 69 179 0.9 0.9 0.00 0.00 0.00 43 1017.2
20260508164903 70 185 0.0 0.0 0.00 0.00 0.00 43 1017.2
20260508164401 70 159 0.9 0.9 0.00 0.00 0.00 43 1017.3
20260508163858 68 142 0.9 1.7 0.00 0.00 0.00 44 1017.5
20260508163356 67 180 0.0 0.0 0.00 0.00 0.00 49 1017.5
20260508162851 67 90 1.7 2.6 0.00 0.00 0.00 45 1017.3
20260508162349 67 191 2.6 2.6 0.00 0.00 0.00 47 1017.5
20260508161846 66 78 3.5 4.3 0.00 0.00 0.00 47 1017.5
20260508161343 67 185 0.0 0.0 0.00 0.00 0.00 45 1017.8
20260508160840 67 193 0.9 0.9 0.00 0.00 0.00 48 1017.7
20260508160339 67 130 1.7 1.7 0.00 0.00 0.00 48 1017.8
20260508155835 66 174 0.0 0.0 0.00 0.00 0.00 48 1017.9
20260508155332 65 167 0.9 0.9 0.00 0.00 0.00 51 1018.1
20260508154828 66 82 2.6 2.6 0.00 0.00 0.00 51 1017.8
20260508154326 66 176 0.0 0.0 0.00 0.00 0.00 52 1018.1
20260508153822 66 189 0.9 0.9 0.00 0.00 0.00 49 1018.2
20260508153321 66 224 0.9 1.7 0.00 0.00 0.00 51 1018.1
20260508152815 65 179 0.9 0.9 0.00 0.00 0.00 49 1018.1
20260508152312 66 183 0.9 1.7 0.00 0.00 0.00 50 1018.0
20260508151808 65 180 0.0 0.9 0.00 0.00 0.00 52 1018.1
20260508151305 65 269 1.7 1.7 0.00 0.00 0.00 48 1018.1
20260508150802 63 111 2.6 4.3 0.00 0.00 0.00 51 1018.2
20260508150259 64 183 0.9 0.9 0.00 0.00 0.00 51 1018.1
20260508145755 64 130 0.9 1.7 0.00 0.00 0.00 54 1018.1
20260508145251 64 129 0.9 0.9 0.00 0.00 0.00 50 1018.2
20260508144748 64 143 0.9 1.7 0.00 0.00 0.00 53 1018.3
20260508144246 64 184 0.0 0.9 0.00 0.00 0.00 54 1018.4
20260508143743 63 193 0.9 0.9 0.00 0.00 0.00 52 1018.2
20260508143240 62 216 2.6 2.6 0.00 0.00 0.00 51 1018.5
20260508142736 62 183 1.7 1.7 0.00 0.00 0.00 55 1018.3
20260508142233 61 106 1.7 1.7 0.00 0.00 0.00 51 1018.0
20260508141730 61 196 0.0 0.0 0.00 0.00 0.00 61 1018.4
20260508141228 62 138 0.9 1.7 0.00 0.00 0.00 65 1018.4
20260508140725 61 181 0.9 0.9 0.00 0.00 0.00 61 1018.3
20260508140221 61 177 0.0 0.9 0.00 0.00 0.00 62 1018.2
20260508135718 61 171 1.7 1.7 0.00 0.00 0.00 64 1018.1
20260508135213 62 198 1.7 1.7 0.00 0.00 0.00 67 1018.1
20260508134709 60 189 0.0 0.0 0.00 0.00 0.00 76 1018.1
20260508134207 60 180 0.9 0.9 0.00 0.00 0.00 71 1018.1
20260508133703 60 202 0.9 1.7 0.00 0.00 0.00 76 1018.2
20260508133201 59 177 0.0 0.9 0.00 0.00 0.00 78 1018.1
20260508132659 60 227 0.0 0.9 0.00 0.00 0.00 80 1018.2
20260508132156 59 180 0.9 0.9 0.00 0.00 0.00 76 1018.4
20260508131651 57 181 0.0 0.0 0.00 0.00 0.00 81 1018.2
20260508131148 56 202 0.9 1.7 0.00 0.00 0.00 82 1018.1
20260508130644 54 200 0.9 0.9 0.00 0.00 0.00 87 1018.3
20260508130142 54 194 0.9 1.7 0.00 0.00 0.00 94 1018.1
20260508125637 53 177 0.0 0.0 0.00 0.00 0.00 99 1017.8
20260508125134 53 170 0.0 0.0 0.00 0.00 0.00 99 1018.0
20260508124632 53 181 0.0 0.0 0.00 0.00 0.00 99 1018.1
20260508124129 53 180 0.0 0.0 0.00 0.00 0.00 99 1017.7
20260508123627 53 179 0.0 0.0 0.00 0.00 0.00 99 1018.0
20260508123125 53 173 0.0 0.0 0.00 0.00 0.00 99 1017.6
20260508122620 53 176 0.0 0.0 0.00 0.00 0.00 99 1017.7
20260508122118 52 179 0.0 0.0 0.00 0.00 0.00 99 1017.5
20260508121616 52 158 0.0 0.0 0.00 0.00 0.00 99 1017.5
20260508121114 51 177 0.0 0.0 0.00 0.00 0.00 99 1017.5
20260508120611 52 178 0.0 0.0 0.00 0.00 0.00 99 1017.7
20260508120109 52 172 0.0 0.0 0.00 0.00 0.00 99 1017.7
20260508115606 52 173 0.0 0.0 0.00 0.00 0.00 99 1017.5
20260508115103 52 173 0.0 0.0 0.00 0.00 0.00 99 1017.3
20260508114600 51 172 0.0 0.0 0.00 0.00 0.00 99 1017.1
20260508114056 51 172 0.0 0.0 0.00 0.00 0.00 99 1017.2
20260508113554 50 171 0.0 0.0 0.00 0.00 0.00 99 1016.9
20260508113052 49 170 0.0 0.0 0.00 0.00 0.00 99 1016.9
20260508112547 49 170 0.0 0.0 0.00 0.00 0.00 99 1016.7
20260508112045 48 171 0.0 0.0 0.00 0.00 0.00 99 1016.6
20260508111542 48 169 0.0 0.0 0.00 0.00 0.00 99 1016.6
20260508111038 48 168 0.0 0.0 0.00 0.00 0.00 99 1016.5
20260508110537 48 168 0.0 0.0 0.00 0.00 0.00 99 1016.5
20260508110032 48 167 0.0 0.0 0.00 0.00 0.00 99 1016.4
20260508105527 48 169 0.0 0.0 0.00 0.00 0.00 99 1016.4
20260508105025 48 170 0.0 0.0 0.00 0.00 0.00 99 1016.4
20260508104523 48 170 0.0 0.0 0.00 0.00 0.00 99 1016.0
20260508104019 48 170 0.0 0.0 0.00 0.00 0.00 99 1015.9
20260508103516 48 170 0.0 0.0 0.00 0.00 0.00 99 1015.8
20260508103013 48 171 0.0 0.0 0.00 0.00 0.00 99 1015.7
20260508102511 48 171 0.0 0.0 0.00 0.00 0.00 99 1015.6
20260508102008 48 174 0.0 0.0 0.00 0.00 0.00 99 1015.8
20260508101506 48 172 0.0 0.0 0.00 0.00 0.00 99 1015.5
20260508101002 48 174 0.0 0.0 0.00 0.00 0.00 99 1015.6
20260508100501 48 170 0.0 0.0 0.00 0.00 0.00 99 1015.6
20260508095957 49 165 0.0 0.0 0.00 0.00 0.00 99 1015.6